Погода в Диканьке

Украина / Полтавская область     49˚49′21″N   34˚32′19″E
темп.,
°C
ветер,
м/с
пор.,
м/с
влажн.,
%
обл.,
%
осадки,
мм/ч
давл.,
гПа
погр.,
м
6 декабря, вс
вс623:00−3˚вюв612430 0.0 1036407
02:00−4˚в511460 0.0 1036359
05:00−5˚в612460 0.0 1036359
08:00−5˚в612480 0.0 1037380
11:00−2˚в611420 0.0 1037500
14:00−1˚в611520 0.0 1036564
17:00−4˚в612600 0.0 1036527
20:00−5˚в712610 0.0 1036530
7 декабря, пн
пн723:00−6˚в612660 0.0 1037541
02:00−7˚в611660 0.0 1037498
05:00−7˚в613650 0.0 1036481
08:00−7˚в613630 0.0 1036505
11:00−4˚в813470 0.0 1035607
14:00−3˚в813400 0.0 1034665
17:00−4˚в714460 0.0 1034550
20:00−5˚в714510 0.0 1034514
8 декабря, вт
вт823:00−6˚в715600 0.0 1033464
02:00−6˚в713610 0.0 1033441
05:00−7˚в715600 0.0 1032448
08:00−7˚в714580 0.0 1031475
11:00−3˚вюв713460 0.0 1031606
14:00−2˚в712420 0.0 1030701
17:00−3˚в613440 0.0 1030548
20:00−4˚в613480 0.0 1030507
9 декабря, ср
ср923:00−5˚в613560 0.0 1030452
02:00−5˚в613560 0.0 1030453
05:00−6˚в613570 0.0 1030450
08:00−6˚в613610 0.0 1030459
11:00−3˚вюв6115722 0.0 1030582
14:00−2˚вюв6105923 0.0 1029618
17:00−3˚вюв612666 0.0 1029486
20:00−3˚вюв6136338 0.0 1030468
10 декабря, чт
чт1023:00−4˚вюв6126749 0.0 1030469
02:00−4˚вюв6128043 0.0 1031422
05:00−4˚вюв5118241 0.0 1030367
08:00−4˚вюв6118129 0.0 1030376
11:00−2˚вюв6117425 0.0 1030452
14:00вюв6107014 0.0 1029530
17:00−2˚вюв512760 0.0 1030379
20:00−3˚вюв612700 0.0 1030402